Tracking 31011 objects as of 12-Jul-2025
HD Live streaming from Space Station
objects crossing your sky now

STARLINK-11431

Track STARLINK-11431 now!
10-day predictions
STARLINK-11431 is classified as:


NORAD ID: 62890
Int'l Code: 2025-024M
Perigee: 362.0 km
Apogee: 365.2 km
Inclination: 43.0 °
Period: 91.7 minutes
Semi major axis: 6734 km
RCS: Unknown
Launch date: February 4, 2025
Source: United States (US)
Launch site: AIR FORCE EASTERN TEST RANGE (AFETR)
Your satellite tracking list
Your tracking list is empty




NASA's NSSDC Master Catalog

Two Line Element Set (TLE):
1 62890U 25024M   25193.16730089  .00069279  00000-0  53874-3 0  9995
2 62890  42.9992 191.6937 0002407 296.1207  63.9413 15.70845759 26036
Source of the keplerian elements: AFSPC